COSMOS 1869

导读

COSMOS 1869是苏联(独联体CIS)于1987年7月16日发射的军用卫星,属于苏联“宇宙”(COSMOS)卫星系列,该系列混编军用、科学和技术试验卫星,多数承担军事任务。该卫星运行在近地轨道,轨道参数为近地点598千米、远地点626千米,轨道倾角82.5°,至今仍在轨道运行,主要承担空间军事侦察与监视相关任务,是冷战时期苏联太空军事力量的组成部分。

基本信息
目录编号:
18214
目录名称:
COSMOS 1869
国际标识:
1987-062A
轨道中心:
EARTH
卫星名称:
COSMOS 1869
卫星全名:
--
卫星状态:
在轨 (已飞行14295 天)
发射日期:
1987-07-16 UTC
国别 :
俄罗斯(独联体) (CIS)
星等 :
--
轨道信息
数据来源 国际轨道数据
星历时间: 2026-09-03T23:18:33+0800
17小时前
查看轨道信息
半长轴: 6828.141km
偏心率: 0.0017432
轨道倾角: 82.511°
近地点辐角 139.429°
升交点赤经 20.526°
平近点角 220.826°
近地点: 438.101km
远地点: 461.907km
周期: 93.587分钟
每日圈数: 15.386827
详细信息
使用方式:
暂无
2D轨道图
3D轨道图
轨道高度分析图
轨道倾角分析图
轨道综合分析图
查看轨道综合分析图
交会数据列表
事件ID 空间交会对象 最接近时刻(TCA) 交会距离 交会风险概率(CRP) 交会风险指数(CRI) 操作
CDM_260905-074201-821406-817521
2026-09-05T
07:42:08+0000
0.316 km
远距离
4.446641E-4 高风险 0.88
CDM_260906-053401-821405-810321
2026-09-06T
05:34:44+0000
0.334 km
远距离
2.628677E-4 高风险 0.83
CDM_260904-192001-821406-920421
2026-09-04T
19:20:34+0000
1.045 km
极远距离
2.25194E-5 中风险 0.62
CDM_260904-222301-821405-387122
2026-09-04T
22:23:01+0000
1.252 km
极远距离
1.170624E-5 中风险 0.56
CDM_260905-171101-821406-564821
2026-09-05T
17:11:53+0000
1.316 km
极远距离
1.006475E-5 中风险 0.55
CDM_260904-235101-821406-294921
2026-09-04T
23:51:18+0000
1.598 km
极远距离
4.406693E-6 低风险 0.48
CDM_260905-154001-821405-111221
2026-09-05T
15:40:36+0000
2.197 km
极远距离
2.217505E-6 低风险 0.42
CDM_260830-093901-821406-522321
2026-08-30T
09:39:54+0000
1.866 km
极远距离
1.914804E-6 低风险 0.41
CDM_260904-222501-821406-503821
2026-09-04T
22:25:39+0000
2.364 km
极远距离
1.881532E-6 低风险 0.4
CDM_260905-123501-821406-826521
2026-09-05T
12:35:10+0000
2.505 km
极远距离
1.703224E-6 低风险 0.4